CDT,Max TemperatureF,Mean TemperatureF,Min TemperatureF,Max Dew PointF,MeanDew PointF,Min DewpointF,Max Humidity, Mean Humidity, Min Humidity, Max Sea Level PressureIn, Mean Sea Level PressureIn, Min Sea Level PressureIn, Max VisibilityMiles, Mean VisibilityMiles, Min VisibilityMiles, Max Wind SpeedMPH, Mean Wind SpeedMPH, Max Gust SpeedMPH,PrecipitationIn, CloudCover, Events, WindDirDegrees
2013-8-1,75,65,55,66,56,46,100,77,38,30.00,29.98,29.96,10,7,0,9,2,,0.00,3,Fog,309
2013-8-2,80,66,53,68,61,52,94,86,61,29.97,29.92,29.85,10,9,1,15,3,22,0.00,5,Rain,200
2013-8-3,71,64,57,64,59,52,100,79,50,30.12,30.04,29.96,10,7,0,13,3,18,0.00,3,Fog-Rain,14
2013-8-4,69,60,51,59,54,50,100,77,49,30.22,30.17,30.12,10,8,0,12,2,17,0.00,2,Fog,19
2013-8-5,73,62,50,61,55,46,100,74,52,30.15,30.04,29.93,10,10,2,13,2,17,0.00,4,Rain,180
2013-8-6,78,70,62,66,64,59,94,81,65,29.94,29.90,29.87,10,10,2,10,4,,0.00,5,Rain,185
2013-8-7,86,74,62,72,68,63,100,87,58,29.96,29.87,29.82,10,8,0,14,6,21,0.00,4,Fog-Rain,194
2013-8-8,73,66,60,63,59,55,100,80,57,30.03,29.99,29.96,10,9,0,12,3,,0.00,2,Fog,29
2013-8-9,78,66,55,64,59,52,100,74,44,30.05,30.01,29.98,10,9,0,6,1,,0.00,2,Fog,315
2013-8-10,77,68,60,64,58,50,100,71,39,30.14,30.10,30.05,10,9,0,13,3,16,0.00,3,Fog,22
2013-8-11,78,66,53,63,56,50,100,70,41,30.15,30.11,30.05,10,10,5,7,1,,0.00,4,,335
2013-8-12,82,72,62,70,63,59,100,76,48,30.05,29.96,29.88,10,8,0,12,5,18,0.00,5,Fog-Rain,224
2013-8-13,66,62,59,64,51,45,100,69,52,30.15,30.06,29.94,10,10,3,16,8,23,0.00,4,,13
2013-8-14,64,55,46,52,47,43,100,70,49,30.23,30.19,30.15,10,10,1,10,3,16,0.00,1,,31
2013-8-15,73,60,46,55,50,45,100,73,41,30.20,30.16,30.12,10,9,1,7,1,,0.00,1,,284
2013-8-16,77,64,51,59,53,45,100,73,34,30.22,30.18,30.14,10,8,0,9,1,,0.00,2,Fog,61
2013-8-17,78,64,51,59,54,50,100,74,36,30.26,30.22,30.19,10,8,0,9,1,,0.00,1,Fog,68
2013-8-18,77,65,53,61,56,52,100,76,47,30.23,30.17,30.13,10,8,0,9,1,,0.00,1,Fog,10
2013-8-19,80,66,53,63,57,52,100,74,39,30.14,30.11,30.05,10,8,0,7,1,,0.00,1,Fog,295
2013-8-20,82,70,59,64,62,59,100,73,45,30.16,30.11,30.07,10,8,0,10,2,,0.00,1,Fog,194
2013-8-21,86,73,60,66,63,61,100,69,45,30.13,30.08,30.00,10,9,1,10,3,,0.00,2,,195
2013-8-22,75,68,62,68,65,61,100,86,65,30.15,30.08,30.00,10,9,1,17,6,24,0.00,4,Rain,251
2013-8-23,77,66,55,64,59,54,100,77,47,30.20,30.15,30.10,10,8,0,12,2,10,0.00,2,Fog,29
2013-8-24,80,66,51,59,54,50,100,68,34,30.29,30.25,30.20,10,10,1,7,1,,0.00,0,,161
2013-8-25,86,72,57,63,59,54,94,62,40,30.29,30.24,30.17,10,10,5,13,4,,0.00,0,,199
2013-8-26,87,76,64,70,64,57,83,67,51,30.19,30.12,30.03,10,10,10,14,6,17,0.00,0,,212
2013-8-27,91,81,71,72,68,63,88,66,41,30.03,29.95,29.86,10,10,10,15,7,23,0.00,1,,223
2013-8-28,80,74,68,70,67,63,100,84,54,30.05,29.96,29.86,10,7,0,13,7,18,0.00,7,Fog,326
2013-8-29,80,72,64,70,67,64,100,87,61,30.10,30.05,30.01,10,5,0,8,1,,0.00,4,Fog,3
2013-8-30,89,76,64,73,67,63,100,75,49,30.00,29.90,29.78,10,8,0,13,3,21,0.00,2,Fog-Rain,222
2013-8-31,75,72,68,70,67,64,100,89,73,29.88,29.84,29.80,10,9,1,9,3,,0.00,7,Rain,13